Change the Weather History Date:

Thursday, February 23, 2012

  Actual Average Record
Temperature  
Mean Temperature 33 °F 17 °F  
Max Temperature 35 °F 27 °F 52 °F (1981)
Min Temperature 31 °F 7 °F -25 °F (1972)
Degree Days  
Heating Degree Days 32 48  
Month to date heating degree days 1108 1189  
Since 1 July heating degree days 5627 6483  
Cooling Degree Days 0 0  
Month to date cooling degree days 0 0  
Year to date cooling degree days 0 0  
Moisture  
Dew Point 31 °F    
Average Humidity 89    
Maximum Humidity 100    
Minimum Humidity 78    
Precipitation  
Precipitation 0.28 in 0.08 in 0.77 in (2009)
Month to date precipitation 1.07 1.79  
Year to date precipitation 4.44 4.50  
Snow  
Snow 3.00 in 0.70 in 10.00 in (2009)
Month to date snowfall 12.3 18.3  
Since 1 July snowfall 58.5 78.6  
Snow Depth 15.00 in    
Sea Level Pressure  
Sea Level Pressure 29.41 in    
Wind  
Wind Speed 7 mph (NW)    
Max Wind Speed 20 mph    
Max Gust Speed 28 mph    
Visibility 5 miles    
Events Fog , Snow    
T = Trace of Precipitation, MM = Missing Value Source: NWS Daily Summary

Daily Weather History Graph

Daily Weather History Graph

Search for Another Location

Airport or City:

Trip Planner

Search our weather history database for the weather conditions in past years. The results will help you decide how hot, cold, wet, or windy it might be!

Date:

Astronomy

Feb. 23, 2012 Rise Set
Actual Time 6:23 AM EST 5:08 PM EST
Civil Twilight 5:52 AM EST 5:38 PM EST
Nautical Twilight 5:17 AM EST 6:14 PM EST
Astronomical Twilight 4:42 AM EST 6:49 PM EST
Moon 6:38 AM EST (2/23) 7:22 PM EST (2/23)
Length of Visible Light 11h 45m
Length of Day
10h 44m
Waxing Crescent, 3% of the Moon is Illuminated
Feb 23
Waxing Crescent
Feb 29
First Quarter
Mar 8
Full
Mar 14
Last Quarter
Mar 22
New

Hourly Weather History & Observations

Time (EST) Temp. Windchill Dew Point Humidity Pressure Visibility Wind Dir Wind Speed Gust Speed Precip Events Conditions
12:00 AM 30.2 °F 26.7 °F 28.4 °F 93% 29.48 in 3.0 mi SSE 3.5 mph - 0.00 in Snow Light Snow
12:45 AM 32.0 °F 28.7 °F 30.2 °F 93% 29.48 in 2.5 mi South 3.5 mph - 0.00 in Snow Light Snow
12:54 AM 32.0 °F 28.7 °F 30.0 °F 92% 29.50 in 2.0 mi SSE 3.5 mph - 0.00 in Snow Light Snow
1:09 AM 30.2 °F 25.4 °F 30.2 °F 100% 29.47 in 3.0 mi SSE 4.6 mph - 0.00 in   Overcast
1:45 AM 32.0 °F 26.4 °F 30.2 °F 93% 29.47 in 4.0 mi SSE 5.8 mph - 0.00 in   Overcast
1:54 AM 32.0 °F 27.5 °F 30.0 °F 92% 29.50 in 4.0 mi SSE 4.6 mph - 0.00 in   Overcast
2:24 AM 32.0 °F 28.7 °F 30.2 °F 93% 29.46 in 3.0 mi SSE 3.5 mph - 0.00 in Snow Light Snow
2:54 AM 32.0 °F 27.5 °F 30.0 °F 92% 29.48 in 4.0 mi SSE 4.6 mph - 0.00 in   Overcast
3:04 AM 30.2 °F 26.7 °F 30.2 °F 100% 29.45 in 3.0 mi SSE 3.5 mph - N/A   Overcast
3:54 AM 32.0 °F 28.7 °F 30.0 °F 92% 29.47 in 3.0 mi ESE 3.5 mph - N/A   Overcast
4:18 AM 30.2 °F 26.7 °F 30.2 °F 100% 29.43 in 2.5 mi ESE 3.5 mph - N/A   Overcast
4:25 AM 30.2 °F 26.7 °F 30.2 °F 100% 29.42 in 2.0 mi ESE 3.5 mph - N/A   Overcast
4:33 AM 30.2 °F - 30.2 °F 100% 29.43 in 1.2 mi Calm Calm - N/A   Overcast
4:52 AM 32.0 °F 27.5 °F 30.2 °F 93% 29.41 in 0.8 mi ESE 4.6 mph - N/A   Mist
4:54 AM 32.0 °F 27.5 °F 30.0 °F 92% 29.44 in 0.8 mi ESE 4.6 mph - N/A   Mist
5:54 AM 33.1 °F 27.7 °F 32.0 °F 96% 29.43 in 0.8 mi SE 5.8 mph - N/A   Mist
6:05 AM 33.8 °F 30.8 °F 32.0 °F 93% 29.40 in 1.5 mi SSE 3.5 mph - N/A   Overcast
6:22 AM 33.8 °F 30.8 °F 32.0 °F 93% 29.41 in 2.0 mi SSW 3.5 mph - N/A   Overcast
6:29 AM 33.8 °F - 32.0 °F 93% 29.41 in 1.2 mi Calm Calm - 0.00 in Snow Light Snow
6:40 AM 33.8 °F - 32.0 °F 93% 29.41 in 0.8 mi Calm Calm - 0.00 in Snow Light Snow
6:54 AM 33.1 °F 30.0 °F 30.9 °F 92% 29.44 in 0.5 mi SE 3.5 mph - 0.01 in Fog , Snow Light Snow
7:39 AM 33.8 °F 29.6 °F 32.0 °F 93% 29.38 in 1.5 mi East 4.6 mph - 0.00 in   Overcast
7:45 AM 33.8 °F 29.6 °F 32.0 °F 93% 29.38 in 3.0 mi ESE 4.6 mph - 0.00 in   Overcast
7:54 AM 33.1 °F 30.0 °F 32.0 °F 96% 29.41 in 3.0 mi ESE 3.5 mph - 0.00 in   Overcast
8:50 AM 33.8 °F 29.6 °F 30.2 °F 87% 29.38 in 1.8 mi SE 4.6 mph - 0.00 in Snow Light Snow
8:54 AM 33.1 °F 28.7 °F 30.9 °F 92% 29.42 in 1.0 mi South 4.6 mph - 0.00 in Snow Light Snow
9:12 AM 33.8 °F - 32.0 °F 93% 29.38 in 0.5 mi Calm Calm - 0.01 in Fog , Snow Snow
9:36 AM 33.8 °F 30.8 °F 32.0 °F 93% 29.36 in 0.2 mi East 3.5 mph - 0.06 in Fog , Snow Heavy Snow
9:45 AM 33.8 °F 30.8 °F 30.2 °F 87% 29.36 in 0.2 mi ENE 3.5 mph - 0.08 in Fog , Snow Heavy Snow
9:54 AM 33.1 °F - 32.0 °F 96% 29.39 in 0.2 mi Calm Calm - 0.10 in Fog , Snow Heavy Snow
10:54 AM 33.1 °F - 33.1 °F 100% 29.39 in 0.5 mi Calm Calm - 0.12 in Fog , Snow Snow
11:54 AM 33.1 °F - 32.0 °F 96% 29.36 in 0.8 mi Calm Calm - 0.03 in Snow Light Snow
12:09 PM 33.8 °F - 32.0 °F 93% 29.33 in 1.0 mi Calm Calm - 0.00 in Snow Light Snow
12:23 PM 33.8 °F - 33.8 °F 100% 29.33 in 1.5 mi Calm Calm - 0.00 in Snow Light Snow
12:30 PM 33.8 °F - 33.8 °F 100% 29.32 in 1.2 mi Calm Calm - 0.00 in Snow Light Snow
12:54 PM 34.0 °F - 33.1 °F 96% 29.34 in 1.5 mi Calm Calm - 0.01 in Snow Light Snow
1:08 PM 35.6 °F - 33.8 °F 93% 29.31 in 3.0 mi Calm Calm - 0.00 in Snow Light Snow
1:54 PM 35.1 °F 30.1 °F 32.0 °F 89% 29.33 in 9.0 mi NW 5.8 mph - 0.01 in   Overcast
2:02 PM 35.6 °F 29.9 °F 32.0 °F 87% 29.29 in 10.0 mi NW 6.9 mph - N/A   Overcast
2:54 PM 34.0 °F 27.2 °F 30.9 °F 89% 29.33 in 7.0 mi NW 8.1 mph - 0.00 in Snow Light Snow
3:41 PM 35.6 °F 28.0 °F 30.2 °F 81% 29.31 in 10.0 mi NW 10.4 mph - 0.00 in   Overcast
3:54 PM 35.1 °F 27.9 °F 32.0 °F 89% 29.34 in 10.0 mi NNW 9.2 mph - 0.00 in   Overcast
4:22 PM 35.6 °F 28.6 °F 32.0 °F 87% 29.32 in 10.0 mi NW 9.2 mph - N/A   Overcast
4:54 PM 35.1 °F 27.9 °F 32.0 °F 89% 29.37 in 10.0 mi NW 9.2 mph - N/A   Overcast
5:50 PM 35.6 °F 29.2 °F 32.0 °F 87% 29.36 in 10.0 mi NW 8.1 mph - N/A   Overcast
5:54 PM 35.1 °F 29.3 °F 32.0 °F 89% 29.40 in 10.0 mi NW 6.9 mph - N/A   Overcast
6:10 PM 35.6 °F 28.6 °F 32.0 °F 87% 29.37 in 10.0 mi NW 9.2 mph - N/A   Overcast
6:20 PM 35.6 °F 28.0 °F 32.0 °F 87% 29.38 in 10.0 mi NW 10.4 mph - N/A   Overcast
6:54 PM 35.1 °F 25.5 °F 30.9 °F 85% 29.42 in 10.0 mi NW 15.0 mph - N/A   Overcast
7:17 PM 35.6 °F 26.6 °F 30.2 °F 81% 29.40 in 10.0 mi NW 13.8 mph - N/A   Overcast
7:39 PM 35.6 °F 27.1 °F 30.2 °F 81% 29.41 in 10.0 mi NW 12.7 mph - N/A   Overcast
7:54 PM 34.0 °F 24.6 °F 30.9 °F 89% 29.44 in 10.0 mi NW 13.8 mph 20.7 mph N/A   Overcast
8:29 PM 33.8 °F 25.8 °F 30.2 °F 87% 29.43 in 10.0 mi NW 10.4 mph - N/A   Overcast
8:39 PM 33.8 °F 24.3 °F 30.2 °F 87% 29.44 in 10.0 mi NW 13.8 mph 23.0 mph N/A   Overcast
8:54 PM 34.0 °F 23.8 °F 30.0 °F 85% 29.47 in 10.0 mi NW 16.1 mph 24.2 mph N/A   Overcast
9:18 PM 33.8 °F 23.2 °F 28.4 °F 81% 29.45 in 10.0 mi NW 17.3 mph - N/A   Overcast
9:54 PM 32.0 °F 21.6 °F 27.0 °F 82% 29.51 in 10.0 mi NW 15.0 mph 26.5 mph N/A   Overcast
10:25 PM 32.0 °F 21.6 °F 26.6 °F 80% 29.49 in 10.0 mi NW 15.0 mph 24.2 mph N/A   Overcast
10:54 PM 32.0 °F 22.5 °F 27.0 °F 82% 29.54 in 10.0 mi NW 12.7 mph 20.7 mph N/A   Overcast
11:08 PM 32.0 °F 22.5 °F 26.6 °F 80% 29.52 in 10.0 mi NW 12.7 mph - N/A   Overcast
11:31 PM 30.2 °F 20.2 °F 26.6 °F 86% 29.53 in 10.0 mi NW 12.7 mph 21.9 mph N/A   Mostly Cloudy
11:54 PM 32.0 °F 22.5 °F 26.1 °F 79% 29.57 in 10.0 mi NW 12.7 mph 18.4 mph N/A   Overcast